Cortez, CO

12:07 PM MST on November 15, 2019 (GMT -0700)
Cortez Municipal

Weather History for KCEZ - September, 2019

Change the Weather History Date:

Monday, September 9, 2019

  Actual Average Record
Temperature  
Mean Temperature 62 °F 63 °F  
Max Temperature 82 °F 80 °F 89 °F (2018)
Min Temperature 42 °F 46 °F 30 °F (2001)
Degree Days  
Heating Degree Days 3 3  
Month to date heating degree days 3 20  
Since 1 July heating degree days 3 32  
Cooling Degree Days 0 1  
Month to date cooling degree days 63 12  
Year to date cooling degree days 543 421  
Growing Degree Days 12 (Base 50)    
Moisture  
Dew Point 31 °F    
Average Humidity 38    
Maximum Humidity 62    
Minimum Humidity 14    
Precipitation  
Precipitation 0.00 in 0.06 in 2.63 in (2003)
Month to date precipitation 0.07 0.47  
Year to date precipitation 9.85 8.91  
Sea Level Pressure  
Sea Level Pressure 29.85 in    
Wind  
Wind Speed 7 mph (SSE)    
Max Wind Speed 18 mph    
Max Gust Speed 24 mph    
Visibility 10 miles    
Events      
T = Trace of Precipitation, MM = Missing Value Source: NWS Daily Summary

Daily Weather History Graph

Daily Weather History Graph

Search for Another Location

Airport or City:

Astronomy

Sep. 09, 2019 Rise Set
Actual Time 6:51 AM MDT 7:31 PM MDT
Civil Twilight 6:25 AM MDT 7:57 PM MDT
Nautical Twilight 5:54 AM MDT 8:28 PM MDT
Astronomical Twilight 5:22 AM MDT 9:00 PM MDT
Moon 5:23 PM MDT (9/9) 2:31 AM MDT (9/9)
Length of Visible Light 13h 32m
Length of Day
12h 40m
Waxing Gibbous, 83% of the Moon is Illuminated
Sep 9
Waxing Gibbous
Sep 13
Full
Sep 21
Last Quarter
Sep 28
New
Oct 5
First Quarter

Hourly Weather History & Observations

Time (MDT) Temp. Windchill Dew Point Humidity Pressure Visibility Wind Dir Wind Speed Gust Speed Precip Events Conditions
12:53 AM 63.0 °F - 32.0 °F 31% 29.78 in 10.0 mi South 9.2 mph - N/A   Clear
1:53 AM 66.0 °F - 26.1 °F 22% 29.78 in 10.0 mi South 13.8 mph 20.7 mph N/A   Clear
2:53 AM 64.0 °F - 24.1 °F 22% 29.80 in 10.0 mi Variable 3.5 mph - N/A   Clear
3:53 AM 51.1 °F - 30.0 °F 44% 29.84 in 10.0 mi ENE 10.4 mph - N/A   Clear
4:53 AM 46.9 °F - 32.0 °F 56% 29.86 in 10.0 mi ENE 9.2 mph - N/A   Clear
5:53 AM 45.0 °F 41.2 °F 30.0 °F 56% 29.88 in 10.0 mi ENE 6.9 mph - N/A   Clear
6:53 AM 43.0 °F 38.8 °F 30.0 °F 60% 29.91 in 10.0 mi East 6.9 mph - N/A   Clear
7:53 AM 50.0 °F - 30.9 °F 48% 29.93 in 10.0 mi ENE 4.6 mph - N/A   Clear
8:53 AM 59.0 °F - 34.0 °F 39% 29.91 in 10.0 mi ENE 3.5 mph - N/A   Clear
9:53 AM 66.9 °F - 33.1 °F 28% 29.90 in 10.0 mi Calm Calm - N/A   Clear
10:53 AM 73.9 °F - 28.0 °F 18% 29.89 in 10.0 mi SSW 9.2 mph - N/A   Clear
11:53 AM 77.0 °F - 28.9 °F 17% 29.88 in 10.0 mi South 10.4 mph - N/A   Clear
12:53 PM 79.0 °F - 28.0 °F 15% 29.87 in 10.0 mi SSW 11.5 mph - N/A   Clear
1:53 PM 79.0 °F - 28.0 °F 15% 29.84 in 10.0 mi South 8.1 mph - N/A   Clear
2:53 PM 81.0 °F - 27.0 °F 14% 29.81 in 10.0 mi South 12.7 mph 21.9 mph N/A   Clear
3:53 PM 81.0 °F - 28.0 °F 14% 29.83 in 10.0 mi South 10.4 mph 20.7 mph N/A   Clear
4:53 PM 81.0 °F - 27.0 °F 14% 29.83 in 10.0 mi South 10.4 mph - N/A   Clear
5:53 PM 80.1 °F - 28.0 °F 15% 29.82 in 10.0 mi SSW 6.9 mph - N/A   Clear
6:53 PM 77.0 °F - 33.1 °F 20% 29.83 in 10.0 mi SSW 5.8 mph - N/A   Clear
7:53 PM 60.1 °F - 41.0 °F 49% 29.86 in 10.0 mi East 4.6 mph - N/A   Clear
8:53 PM 60.1 °F - 36.0 °F 41% 29.84 in 10.0 mi NE 5.8 mph - N/A   Clear
10:53 PM 57.9 °F - 30.0 °F 35% 29.83 in 10.0 mi Calm Calm - N/A   Mostly Cloudy
11:53 PM 57.0 °F - 37.0 °F 47% 29.82 in 10.0 mi Calm Calm - N/A   Mostly Cloudy